�������l�o���
Date,Time,MP-1(��Sv/h),MP-2(��Sv/h),MP-3(��Sv/h),MP-4(��Sv/h),MP-5(��Sv/h),MP-6(��Sv/h),MP-7(��Sv/h),MP-8(��Sv/h),����,����(m/s),���J
2023/04/16,00:00,0.549,0.780,0.484,0.977,0.686,0.321,0.566,0.535,�k��,7.3,�L
2023/04/16,00:10,0.548,0.779,0.482,0.977,0.685,0.320,0.565,0.536,�k��,8.6,�L
2023/04/16,00:20,0.547,0.779,0.481,0.977,0.688,0.320,0.564,0.535,�k��,7.6,�L
2023/04/16,00:30,0.547,0.779,0.481,0.979,0.687,0.320,0.565,0.536,�k��,7.6,�L
2023/04/16,00:40,0.548,0.781,0.483,0.977,0.687,0.319,0.564,0.536,�k��,7.7,�L
2023/04/16,00:50,0.548,0.779,0.482,0.978,0.688,0.319,0.564,0.536,�k�k��,7.9,�L
2023/04/16,01:00,0.548,0.781,0.484,0.979,0.688,0.321,0.565,0.538,�k�k��,7.1,�L
2023/04/16,01:10,0.549,0.782,0.483,0.980,0.688,0.321,0.567,0.536,�k�k��,7.5,�L
2023/04/16,01:20,0.549,0.781,0.483,0.980,0.689,0.320,0.565,0.538,�k�k��,7.8,�L
2023/04/16,01:30,0.549,0.781,0.483,0.980,0.689,0.322,0.566,0.537,�k�k��,7.9,�L
2023/04/16,01:40,0.549,0.779,0.483,0.980,0.690,0.320,0.566,0.538,�k��,6.7,�L
2023/04/16,01:50,0.548,0.783,0.484,0.979,0.690,0.322,0.566,0.537,�k��,6.4,�L
2023/04/16,02:00,0.550,0.782,0.485,0.982,0.690,0.322,0.567,0.538,�k��,5.9,�L
2023/04/16,02:10,0.551,0.784,0.485,0.979,0.689,0.324,0.565,0.538,�k�k��,4.7,�L
2023/04/16,02:20,0.551,0.782,0.488,0.976,0.689,0.324,0.566,0.538,�k�k��,5.4,�L
2023/04/16,02:30,0.548,0.783,0.487,0.977,0.688,0.324,0.565,0.538,�k�k��,6.1,�L
2023/04/16,02:40,0.551,0.782,0.487,0.978,0.689,0.325,0.566,0.538,�k,4.6,�L
2023/04/16,02:50,0.552,0.783,0.486,0.977,0.689,0.325,0.567,0.539,�k�k��,6.3,�L
2023/04/16,03:00,0.554,0.782,0.488,0.977,0.685,0.323,0.566,0.538,�k�k��,5.5,�L
2023/04/16,03:10,0.552,0.782,0.488,0.978,0.690,0.323,0.567,0.539,�k�k��,6.2,�L
2023/04/16,03:20,0.554,0.786,0.487,0.978,0.691,0.326,0.567,0.538,�k�k��,5.6,�L
2023/04/16,03:30,0.551,0.785,0.488,0.979,0.690,0.326,0.567,0.538,�k�k��,4.9,�L
2023/04/16,03:40,0.552,0.785,0.488,0.979,0.690,0.324,0.567,0.539,�k�k��,4.2,�L
2023/04/16,03:50,0.553,0.785,0.487,0.979,0.690,0.326,0.567,0.539,�k�k��,4.2,�L
2023/04/16,04:00,0.552,0.784,0.488,0.980,0.691,0.326,0.567,0.539,�k,3.0,�L
2023/04/16,04:10,0.553,0.784,0.485,0.979,0.689,0.323,0.567,0.539,�k�k��,3.3,��
2023/04/16,04:20,0.552,0.786,0.486,0.978,0.689,0.325,0.566,0.539,�k��,3.3,��
2023/04/16,04:30,0.550,0.785,0.484,0.978,0.689,0.324,0.564,0.539,�k��,4.0,��
2023/04/16,04:40,0.549,0.784,0.484,0.978,0.688,0.321,0.565,0.540,�k��,3.8,��
2023/04/16,04:50,0.551,0.784,0.482,0.977,0.689,0.322,0.565,0.540,�k��,4.8,��
2023/04/16,05:00,0.547,0.784,0.482,0.976,0.689,0.321,0.567,0.539,�k��,3.9,��
2023/04/16,05:10,0.549,0.781,0.481,0.977,0.688,0.321,0.564,0.539,�k��,2.6,��
2023/04/16,05:20,0.550,0.781,0.481,0.977,0.688,0.322,0.566,0.539,���k��,2.3,��
2023/04/16,05:30,0.548,0.783,0.482,0.977,0.689,0.321,0.567,0.539,���쐼,1.7,��
2023/04/16,05:40,0.549,0.781,0.482,0.977,0.689,0.320,0.566,0.538,��,3.6,��
2023/04/16,05:50,0.547,0.783,0.481,0.979,0.688,0.320,0.566,0.538,��,5.3,��
2023/04/16,06:00,0.549,0.784,0.483,0.974,0.688,0.320,0.565,0.539,��쓌,5.7,�L
2023/04/16,06:10,0.549,0.783,0.482,0.978,0.688,0.321,0.567,0.539,��쓌,4.0,�L
2023/04/16,06:20,0.549,0.784,0.483,0.977,0.688,0.320,0.566,0.538,��쓌,3.4,�L
2023/04/16,06:30,0.549,0.783,0.482,0.978,0.689,0.322,0.565,0.538,��쓌,4.5,��
2023/04/16,06:40,0.548,0.783,0.482,0.979,0.688,0.321,0.564,0.539,��,4.4,��
2023/04/16,06:50,0.548,0.784,0.483,0.978,0.689,0.321,0.565,0.538,��,3.0,��
2023/04/16,07:00,0.548,0.786,0.482,0.978,0.689,0.320,0.564,0.539,��,2.0,��
2023/04/16,07:10,0.549,0.783,0.483,0.980,0.690,0.319,0.565,0.540,-,CALM,��
2023/04/16,07:20,0.549,0.785,0.482,0.978,0.689,0.319,0.565,0.539,�쓌,2.3,��
2023/04/16,07:30,0.549,0.784,0.482,0.979,0.687,0.319,0.565,0.539,�쓌,2.3,��
2023/04/16,07:40,0.549,0.785,0.481,0.977,0.687,0.319,0.563,0.537,�쓌,2.3,��
2023/04/16,07:50,0.548,0.786,0.483,0.978,0.688,0.318,0.564,0.539,�쓌,2.5,��
2023/04/16,08:00,0.548,0.785,0.482,0.980,0.687,0.318,0.563,0.536,�쓌,2.0,��
2023/04/16,08:10,0.549,0.784,0.482,0.978,0.687,0.319,0.565,0.535,��쓌,1.1,��
2023/04/16,08:20,0.549,0.782,0.482,0.978,0.689,0.319,0.565,0.537,�쓌,0.9,��
2023/04/16,08:30,0.549,0.786,0.483,0.978,0.687,0.318,0.565,0.536,��쐼,1.5,��
2023/04/16,08:40,0.550,0.785,0.481,0.979,0.689,0.320,0.563,0.538,��,4.9,��
2023/04/16,08:50,0.549,0.783,0.483,0.980,0.688,0.319,0.564,0.537,��,6.2,��
2023/04/16,09:00,0.549,0.786,0.482,0.979,0.688,0.319,0.565,0.537,���k��,6.1,��
2023/04/16,09:10,0.548,0.787,0.483,0.979,0.687,0.318,0.566,0.536,���k��,7.0,��
2023/04/16,09:20,0.548,0.787,0.483,0.979,0.688,0.319,0.565,0.536,���k��,7.0,��
2023/04/16,09:30,0.551,0.786,0.482,0.978,0.688,0.318,0.565,0.537,��,6.5,��
2023/04/16,09:40,0.550,0.787,0.483,0.984,0.689,0.318,0.566,0.537,���쐼,6.0,��
2023/04/16,09:50,0.549,0.786,0.484,0.981,0.690,0.319,0.566,0.536,���k��,7.1,��
2023/04/16,10:00,0.550,0.786,0.484,0.979,0.691,0.317,0.566,0.536,���k��,8.4,��
2023/04/16,10:10,0.549,0.786,0.482,0.982,0.687,0.317,0.565,0.535,���k��,10.0,��
2023/04/16,10:20,0.550,0.784,0.482,0.981,0.689,0.318,0.566,0.537,��,7.2,��
2023/04/16,10:30,0.548,0.785,0.481,0.983,0.690,0.318,0.568,0.536,���k��,7.6,��
2023/04/16,10:40,0.551,0.783,0.483,0.983,0.689,0.319,0.567,0.537,���k��,6.9,��
2023/04/16,10:50,0.549,0.787,0.483,0.983,0.689,0.319,0.567,0.538,��,6.6,��
2023/04/16,11:00,0.550,0.787,0.483,0.985,0.691,0.318,0.568,0.537,��,7.0,��
2023/04/16,11:10,0.552,0.789,0.483,0.983,0.692,0.318,0.568,0.539,��,6.6,��
2023/04/16,11:20,0.549,0.789,0.482,0.982,0.691,0.319,0.567,0.540,���k��,8.5,��
2023/04/16,11:30,0.551,0.787,0.483,0.984,0.693,0.318,0.569,0.539,��,6.4,��
2023/04/16,11:40,0.552,0.788,0.484,0.987,0.692,0.318,0.568,0.539,��,7.6,��
2023/04/16,11:50,0.551,0.790,0.485,0.987,0.693,0.318,0.569,0.540,��,5.7,��
2023/04/16,12:00,0.553,0.790,0.484,0.985,0.692,0.319,0.568,0.539,���쐼,7.3,��
2023/04/16,12:10,0.554,0.791,0.485,0.987,0.695,0.319,0.570,0.540,���쐼,9.5,��
2023/04/16,12:20,0.554,0.793,0.485,0.988,0.696,0.321,0.569,0.538,��,8.9,��
2023/04/16,12:30,0.554,0.792,0.485,0.989,0.694,0.320,0.569,0.539,���k��,8.2,��
2023/04/16,12:40,0.554,0.795,0.487,0.989,0.695,0.319,0.572,0.542,���k��,12.4,��
2023/04/16,12:50,0.556,0.793,0.487,0.990,0.698,0.319,0.571,0.541,���k��,10.5,��
2023/04/16,13:00,0.556,0.793,0.486,0.989,0.698,0.320,0.571,0.541,���k��,9.0,��
2023/04/16,13:10,0.556,0.795,0.488,0.989,0.697,0.321,0.570,0.541,���k��,7.9,��
2023/04/16,13:20,0.558,0.796,0.487,0.990,0.699,0.319,0.570,0.541,��,9.2,��
2023/04/16,13:30,0.557,0.795,0.486,0.989,0.699,0.320,0.570,0.542,��,13.8,��
2023/04/16,13:40,0.556,0.796,0.488,0.991,0.699,0.321,0.569,0.542,��,11.4,��
2023/04/16,13:50,0.559,0.796,0.488,0.993,0.700,0.320,0.572,0.543,��,10.7,��
2023/04/16,14:00,0.557,0.797,0.488,0.989,0.701,0.321,0.571,0.542,��,11.1,��
2023/04/16,14:10,0.558,0.797,0.488,0.992,0.700,0.320,0.571,0.542,��,11.6,��
2023/04/16,14:20,0.557,0.798,0.489,0.992,0.701,0.321,0.571,0.543,��,11.3,��
2023/04/16,14:30,0.559,0.799,0.489,0.990,0.703,0.321,0.571,0.541,��,8.7,��
2023/04/16,14:40,0.558,0.799,0.489,0.992,0.701,0.320,0.569,0.544,��,9.5,��
2023/04/16,14:50,0.556,0.798,0.489,0.992,0.701,0.320,0.572,0.544,��,7.6,��
2023/04/16,15:00,0.557,0.797,0.489,0.992,0.703,0.320,0.571,0.542,��,7.1,��
2023/04/16,15:10,0.557,0.798,0.488,0.994,0.702,0.320,0.571,0.542,���k��,10.6,��
2023/04/16,15:20,0.557,0.797,0.488,0.994,0.704,0.321,0.569,0.543,���k��,8.8,��
2023/04/16,15:30,0.557,0.798,0.489,0.991,0.702,0.320,0.570,0.541,�k�k��,6.4,��
2023/04/16,15:40,0.557,0.800,0.489,0.992,0.703,0.321,0.570,0.543,�k��,9.5,��
2023/04/16,15:50,0.558,0.799,0.491,0.993,0.703,0.320,0.571,0.543,�k��,10.2,��
2023/04/16,16:00,0.558,0.800,0.492,0.994,0.701,0.320,0.570,0.543,�k��,8.2,��
2023/04/16,16:10,0.558,0.797,0.490,0.994,0.702,0.320,0.571,0.543,�k��,8.3,��
2023/04/16,16:20,0.558,0.799,0.490,0.996,0.702,0.320,0.572,0.543,���k��,6.3,��
2023/04/16,16:30,0.558,0.800,0.489,0.994,0.705,0.319,0.571,0.544,�k��,4.6,��
2023/04/16,16:40,0.559,0.797,0.489,0.996,0.704,0.320,0.573,0.544,�k��,5.7,��
2023/04/16,16:50,0.555,0.800,0.490,0.994,0.704,0.320,0.572,0.544,�k�k��,2.0,��
2023/04/16,17:00,0.557,0.798,0.489,0.996,0.703,0.320,0.573,0.544,�k�k��,3.2,��
2023/04/16,17:10,0.557,0.796,0.489,0.996,0.703,0.322,0.572,0.543,�k��,3.8,��
2023/04/16,17:20,0.558,0.798,0.489,0.996,0.703,0.321,0.572,0.543,���k��,7.0,��
2023/04/16,17:30,0.556,0.801,0.488,0.995,0.703,0.322,0.571,0.543,�k��,7.3,��
2023/04/16,17:40,0.556,0.801,0.488,0.996,0.703,0.320,0.571,0.545,�k��,6.1,��
2023/04/16,17:50,0.556,0.802,0.489,0.999,0.702,0.322,0.572,0.546,���k��,4.5,��
2023/04/16,18:00,0.559,0.802,0.489,0.996,0.702,0.323,0.572,0.546,���k��,11.9,��
2023/04/16,18:10,0.558,0.803,0.490,0.997,0.703,0.320,0.570,0.546,���k��,12.8,��
2023/04/16,18:20,0.559,0.804,0.489,0.999,0.703,0.321,0.572,0.545,��,9.4,��
2023/04/16,18:30,0.559,0.802,0.491,0.998,0.707,0.322,0.572,0.546,��,8.0,��
2023/04/16,18:40,0.559,0.802,0.492,0.998,0.704,0.322,0.571,0.546,��,8.7,��
2023/04/16,18:50,0.561,0.803,0.492,1.000,0.706,0.322,0.570,0.546,���k��,10.8,��
2023/04/16,19:00,0.559,0.805,0.492,1.002,0.706,0.323,0.571,0.544,��,6.9,��
2023/04/16,19:10,0.560,0.803,0.492,1.003,0.706,0.322,0.571,0.546,��,8.5,��
2023/04/16,19:20,0.560,0.803,0.492,1.001,0.708,0.322,0.570,0.547,���k��,7.3,��
2023/04/16,19:30,0.560,0.802,0.492,1.000,0.708,0.321,0.573,0.546,�k��,5.4,��
2023/04/16,19:40,0.559,0.803,0.493,1.001,0.709,0.322,0.572,0.544,�k��,6.7,��
2023/04/16,19:50,0.559,0.804,0.491,1.002,0.708,0.322,0.571,0.545,�k��,7.9,��
2023/04/16,20:00,0.559,0.805,0.491,1.003,0.709,0.323,0.573,0.546,�k��,7.5,��
2023/04/16,20:10,0.559,0.805,0.491,1.002,0.707,0.321,0.571,0.546,�k��,5.6,��
2023/04/16,20:20,0.560,0.805,0.492,1.002,0.708,0.323,0.572,0.546,�k�k��,5.1,��
2023/04/16,20:30,0.558,0.803,0.493,1.002,0.707,0.323,0.573,0.545,�k,4.4,��
2023/04/16,20:40,0.559,0.802,0.491,1.002,0.708,0.323,0.571,0.545,�k,5.2,��
2023/04/16,20:50,0.559,0.802,0.492,1.003,0.709,0.321,0.573,0.546,�k,5.1,��
2023/04/16,21:00,0.558,0.803,0.492,1.001,0.707,0.323,0.573,0.546,�k�k��,6.3,��
2023/04/16,21:10,0.561,0.805,0.491,1.001,0.708,0.322,0.572,0.546,�k��,5.3,��
2023/04/16,21:20,0.561,0.803,0.491,1.002,0.707,0.321,0.574,0.544,���k��,4.0,��
2023/04/16,21:30,0.560,0.804,0.493,1.002,0.709,0.321,0.573,0.544,���k��,5.6,��
2023/04/16,21:40,0.559,0.804,0.490,1.004,0.707,0.322,0.572,0.545,�k��,4.7,��
2023/04/16,21:50,0.559,0.805,0.492,1.003,0.708,0.321,0.573,0.545,�k��,4.1,��
2023/04/16,22:00,0.560,0.802,0.491,1.003,0.707,0.323,0.574,0.546,���k��,4.3,��
2023/04/16,22:10,0.560,0.802,0.491,1.001,0.706,0.322,0.573,0.545,�k��,6.1,��
2023/04/16,22:20,0.559,0.804,0.492,1.002,0.708,0.321,0.574,0.545,�k��,5.4,��
2023/04/16,22:30,0.560,0.804,0.492,1.001,0.708,0.322,0.574,0.544,���k��,6.4,��
2023/04/16,22:40,0.559,0.802,0.491,1.003,0.707,0.321,0.574,0.544,���k��,7.9,��
2023/04/16,22:50,0.559,0.804,0.492,1.002,0.707,0.321,0.575,0.544,��,7.3,��
2023/04/16,23:00,0.559,0.804,0.491,1.002,0.706,0.322,0.574,0.544,���k��,5.5,��
2023/04/16,23:10,0.560,0.803,0.492,1.004,0.707,0.321,0.574,0.544,���k��,5.4,��
2023/04/16,23:20,0.559,0.803,0.490,1.003,0.706,0.322,0.574,0.545,���k��,6.9,��
2023/04/16,23:30,0.558,0.803,0.491,1.003,0.707,0.322,0.574,0.544,���k��,6.7,��
2023/04/16,23:40,0.559,0.805,0.490,1.004,0.708,0.321,0.574,0.543,���k��,7.5,��
2023/04/16,23:50,0.559,0.804,0.492,1.003,0.707,0.322,0.575,0.545,���k��,8.4,��
